Wind_Speed
7 7 7 6 6 5 5 5 5 5 4 3 3 3 2 2 1 1 1 1 1 1 2 2 3 3 4 4 4 4 4 5 5 5 5 4 4 4 5 7 9 11 12
8 8 7 7 6 6 5 5 6 6 5 4 4 3 3 3 2 2 2 2 2 2 2 2 2 2 3 3 3 3 4 4 5 5 5 4 4 4 6 9 10 12 12
9 8 8 8 7 6 6 6 7 7 6 5 5 5 4 4 4 4 4 4 4 3 3 3 3 3 3 3 3 3 3 3 4 4 4 4 3 4 6 8 10 11 11
10 9 9 8 7 7 7 7 7 7 7 6 6 6 5 5 5 5 4 4 4 4 4 4 4 4 4 4 4 3 3 3 3 3 2 2 3 3 5 8 9 9 10
11 10 9 9 8 7 7 7 7 7 7 7 7 6 6 6 6 5 5 5 5 6 6 5 5 5 5 5 5 5 4 3 3 3 3 1 2 3 5 7 8 8 9
12 11 10 9 9 8 8 8 8 7 7 7 7 6 6 6 6 6 7 7 7 7 7 7 6 7 7 7 7 6 5 4 4 4 3 1 1 2 4 6 6 7 8
13 12 11 10 9 9 9 9 8 7 7 7 7 7 7 7 8 8 8 8 9 9 9 9 8 8 8 8 8 8 7 6 5 4 4 3 2 2 4 5 6 7 7
14 13 12 11 10 10 9 9 8 8 8 8 8 8 8 8 9 9 9 9 9 10 9 9 9 9 9 9 9 9 8 7 7 6 6 5 4 3 4 6 6 7 7
15 14 14 13 12 11 10 10 9 9 9 9 9 9 9 10 9 9 10 10 10 10 9 9 9 9 9 9 9 9 9 8 7 6 7 6 6 5 5 6 7 8 9
16 17 15 15 13 12 12 11 10 10 10 10 10 10 10 10 10 10 10 10 10 9 9 9 8 8 8 9 9 9 9 9 8 7 7 7 7 7 7 7 7 9 10
19 18 17 16 15 13 13 13 11 11 11 11 11 11 11 10 10 10 10 9 9 9 9 9 9 9 9 8 8 8 8 9 8 8 8 6 7 8 8 8 9 9 10
21 21 19 18 16 14 14 13 12 12 12 12 12 11 11 10 10 10 9 9 8 8 8 9 9 9 9 8 8 8 8 8 8 8 8 8 8 8 8 9 10 11 11
23 22 22 19 17 15 15 14 13 13 12 12 12 11 10 10 10 9 8 8 7 7 7 8 8 8 7 8 8 7 8 8 8 9 9 8 8 8 8 9 11 12 12
24 24 23 20 19 18 16 15 14 14 13 12 10 10 10 9 9 8 7 7 6 6 6 6 6 6 6 6 7 7 7 8 8 8 9 9 8 9 9 9 10 12 13
26 25 24 23 22 20 18 16 15 14 12 11 10 9 8 8 7 7 6 6 5 5 6 5 5 5 5 5 6 7 7 7 7 7 9 8 8 9 9 9 10 12 13
25 25 25 24 23 20 17 15 14 12 11 10 9 8 7 6 5 5 5 5 5 5 5 4 4 3 3 3 3 5 6 6 6 6 6 7 7 8 9 10 10 10 12
25 25 25 24 22 18 16 14 12 11 10 9 8 7 5 4 4 4 4 4 4 4 3 3 3 3 2 1 1 2 2 4 6 5 5 6 6 7 8 9 9 10 11
25 25 24 22 20 17 15 13 12 11 10 9 7 6 5 4 3 3 3 3 3 3 3 2 2 2 2 2 1 1 1 2 4 4 4 5 5 6 7 8 9 9 10
24 24 23 22 19 17 15 13 12 10 10 8 7 6 4 3 3 3 3 2 3 3 2 2 1 1 1 2 2 2 2 3 4 4 4 5 5 6 7 7 8 9 9
21 22 21 19 18 16 15 13 11 10 9 9 7 6 5 3 2 2 2 2 2 2 2 2 3 3 2 2 2 2 3 3 4 4 5 5 6 6 7 7 8 9 9
19 20 19 17 16 15 14 13 11 10 9 8 6 6 4 3 2 1 0 2 2 2 2 3 4 4 4 4 4 4 3 4 4 4 5 5 6 7 7 8 9 9 9
17 17 17 17 17 15 14 11 10 10 9 8 6 5 4 4 3 2 1 1 2 3 3 3 4 4 4 4 4 5 5 4 4 5 6 6 7 8 9 9 10 10 10
15 16 15 14 14 14 13 11 10 9 8 7 6 6 5 4 3 3 2 1 1 1 2 2 3 3 4 4 5 5 5 5 6 6 7 8 8 9 10 10 11 11 11
11 13 13 14 14 14 13 11 11 10 8 7 7 6 6 5 5 4 3 2 2 1 0 2 2 3 3 4 5 6 6 6 7 7 9 9 10 11 11 11 12 12 13
10 11 12 14 13 12 11 11 11 10 9 8 8 7 7 6 6 5 5 4 3 3 3 3 4 4 5 6 7 8 8 9 9 10 10 11 11 12 12 13 13 13 14
8 10 11 12 12 12 12 11 11 10 10 9 8 8 7 7 7 7 7 6 6 6 6 6 7 7 8 8 9 10 11 11 12 13 14 13 13 13 14 14 15 15 15
Wind_Direction
246 242 237 234 233 237 246 252 256 256 252 245 232 219 214 214 215 216 247 281 314 350 7 6 4 4 5 5 10 18 21 23 26 25 20 35 58 99 126 135 141 139 135
249 249 244 238 238 241 250 255 260 261 257 254 248 244 245 248 256 267 280 285 286 297 313 321 327 337 341 345 350 357 7 16 19 14 14 37 59 101 132 138 139 141 140
248 253 251 248 246 248 251 255 262 260 263 262 258 258 261 264 268 274 283 288 286 287 291 294 297 303 307 310 318 328 343 359 10 12 29 47 73 107 132 140 141 143 144
247 248 249 250 247 248 252 255 258 258 260 259 262 268 271 273 273 275 278 282 282 283 284 286 287 285 288 288 292 298 310 327 349 354 27 60 86 110 127 142 146 147 150
241 238 241 245 246 248 252 254 258 262 260 264 270 274 275 275 276 277 278 278 280 279 280 282 282 279 279 278 278 279 281 291 299 314 348 17 110 121 133 147 150 150 153
238 233 236 240 242 245 251 256 259 261 265 272 277 278 277 278 280 280 280 281 281 279 278 278 280 277 274 272 271 270 268 271 280 277 291 277 184 156 154 160 162 159 161
231 228 231 234 236 242 249 257 257 257 267 274 279 281 281 281 280 280 281 284 282 279 276 272 274 276 270 268 266 265 265 261 267 273 274 261 230 196 183 181 180 174 173
225 222 224 229 232 238 245 252 253 259 267 275 281 281 281 283 282 281 283 284 283 280 275 270 270 272 269 266 261 261 262 260 257 260 263 259 242 218 203 195 193 191 187
225 220 220 227 229 235 244 251 254 260 269 276 281 282 285 286 285 282 283 282 281 278 274 270 269 269 268 265 260 257 258 257 253 258 260 256 247 231 226 215 207 202 200
224 219 222 229 233 238 244 249 255 263 270 276 281 283 286 287 286 285 284 283 281 276 272 269 266 268 266 263 257 254 253 252 249 244 247 247 249 239 233 226 217 212 210
223 220 224 231 233 239 244 248 255 263 270 276 280 282 285 287 289 289 285 286 283 278 274 270 269 270 266 260 252 248 247 246 242 235 248 254 252 246 239 235 226 218 219
224 224 226 232 236 241 245 251 257 264 270 277 281 283 285 286 289 289 287 286 284 281 277 275 275 274 269 257 245 239 239 239 241 242 247 249 251 250 244 241 234 229 229
223 224 226 229 234 239 247 254 259 265 271 277 282 283 287 289 292 291 287 287 288 285 282 282 280 271 266 256 246 240 238 236 243 249 251 250 251 250 249 248 242 236 234
224 226 226 229 236 243 250 255 260 265 270 275 280 280 285 291 294 294 291 289 287 285 285 285 290 276 267 253 247 245 240 234 237 241 248 252 254 253 252 253 249 242 240
225 227 228 230 235 241 249 254 259 266 266 270 273 277 283 290 295 295 293 292 289 289 287 290 288 286 268 258 249 246 245 240 240 248 254 255 256 257 256 258 256 248 245
226 226 229 231 235 239 245 252 257 261 264 265 267 273 280 284 288 290 293 295 300 296 294 299 300 304 291 274 256 245 245 249 250 252 258 263 259 260 262 264 261 259 253
225 228 230 229 231 236 242 246 252 257 258 257 261 267 271 276 286 293 298 301 305 301 300 304 313 322 326 303 269 266 257 254 259 262 267 276 272 271 271 269 266 265 262
225 227 227 229 232 233 239 245 250 252 250 249 248 252 261 269 284 298 304 313 317 317 320 322 324 326 332 339 337 327 305 287 283 281 277 280 282 285 285 277 272 270 268
227 228 230 229 227 230 236 240 244 243 243 238 240 241 253 259 280 302 312 323 333 336 345 1 13 9 4 2 359 336 312 308 307 304 303 300 295 291 295 296 285 280 277
227 229 229 226 225 229 231 233 236 235 232 234 235 236 242 244 265 298 327 3 9 17 30 37 41 35 25 19 7 351 343 336 328 321 314 309 303 300 298 299 297 288 284
226 223 218 221 222 224 225 228 229 222 221 223 222 222 224 227 233 236 39 49 45 49 50 53 50 44 37 29 24 17 8 359 348 339 333 328 318 311 306 301 299 296 292
220 218 215 217 218 218 222 221 213 211 212 210 212 218 216 216 211 193 160 105 86 74 68 61 55 48 40 34 29 22 16 6 357 343 336 330 324 319 313 307 302 299 294
213 213 207 207 207 211 212 208 207 206 208 210 213 215 212 211 206 195 185 162 135 100 72 52 43 36 29 24 17 10 4 353 345 340 332 323 319 314 311 308 305 300 297
206 202 200 204 207 207 204 204 207 210 213 213 213 213 208 206 206 207 208 204 208 207 4 359 357 360 360 355 348 344 342 339 335 332 329 323 319 314 310 308 305 300 297
196 196 198 203 202 201 198 203 207 211 215 214 209 210 211 211 215 222 225 229 237 252 282 300 308 317 322 322 323 325 326 325 324 323 322 319 316 313 310 309 307 303 299
185 194 197 201 198 199 200 205 209 213 215 212 211 215 219 223 229 234 235 241 251 263 276 284 290 296 301 305 308 309 311 312 313 314 314 314 311 309 307 306 304 302 299
Height
5895 5896 5897 5899 5899 5900 5901 5901 5901 5902 5902 5902 5902 5902 5902 5902 5902 5902 5902 5902 5902 5902 5901 5901 5901 5900 5900 5899 5899 5898 5898 5898 5897 5897 5896 5896 5896 5896 5896 5897 5897 5898 5900
5894 5895 5896 5898 5899 5899 5900 5901 5901 5902 5902 5902 5902 5902 5902 5902 5902 5902 5902 5902 5902 5902 5902 5901 5901 5901 5900 5900 5899 5898 5898 5898 5898 5897 5897 5896 5896 5896 5897 5897 5898 5899 5901
5892 5894 5895 5896 5898 5899 5900 5900 5901 5901 5902 5902 5902 5902 5902 5902 5902 5902 5902 5902 5902 5901 5901 5901 5901 5900 5900 5900 5899 5899 5899 5899 5898 5898 5896 5897 5897 5897 5898 5898 5900 5901 5902
5891 5893 5894 5895 5896 5898 5899 5900 5900 5901 5901 5901 5901 5901 5901 5901 5901 5901 5901 5901 5901 5901 5901 5900 5900 5900 5899 5899 5899 5899 5899 5899 5899 5898 5897 5897 5898 5898 5899 5900 5901 5902 5903
5889 5891 5893 5894 5896 5897 5898 5899 5899 5900 5900 5900 5901 5901 5901 5900 5900 5900 5900 5900 5900 5900 5899 5899 5899 5899 5899 5898 5898 5898 5898 5899 5898 5898 5897 5898 5899 5899 5900 5901 5902 5903 5904
5888 5890 5892 5893 5895 5896 5897 5898 5899 5899 5899 5899 5900 5900 5899 5899 5899 5899 5899 5899 5898 5898 5898 5898 5898 5898 5898 5897 5897 5898 5898 5898 5898 5898 5898 5899 5899 5900 5900 5901 5903 5904 5905
5887 5888 5890 5892 5894 5895 5896 5897 5898 5898 5898 5899 5899 5899 5898 5898 5898 5898 5897 5897 5897 5897 5897 5897 5897 5897 5896 5896 5896 5897 5897 5897 5897 5898 5898 5899 5899 5900 5901 5902 5903 5904 5905
5885 5887 5889 5891 5892 5894 5895 5896 5897 5897 5897 5897 5897 5897 5897 5897 5896 5896 5896 5896 5895 5895 5895 5895 5895 5895 5895 5895 5895 5896 5896 5897 5897 5898 5898 5898 5899 5900 5900 5902 5903 5904 5905
5883 5885 5887 5889 5891 5892 5894 5895 5895 5896 5896 5896 5896 5896 5896 5896 5895 5895 5894 5894 5894 5893 5893 5893 5893 5893 5893 5893 5894 5894 5895 5895 5896 5897 5896 5897 5898 5899 5900 5901 5902 5904 5905
5880 5882 5885 5887 5889 5891 5892 5893 5894 5895 5895 5895 5895 5895 5895 5894 5893 5893 5893 5892 5892 5892 5892 5892 5892 5892 5892 5892 5892 5893 5894 5894 5895 5895 5893 5895 5897 5898 5899 5901 5902 5903 5905
5877 5880 5882 5885 5887 5889 5890 5891 5893 5893 5894 5894 5893 5893 5893 5892 5892 5891 5891 5891 5891 5890 5890 5890 5890 5890 5890 5890 5891 5891 5892 5892 5891 5891 5891 5893 5896 5897 5898 5900 5901 5902 5904
5874 5877 5880 5882 5885 5887 5888 5890 5891 5892 5892 5892 5892 5892 5891 5891 5890 5890 5889 5889 5889 5889 5888 5888 5888 5888 5888 5889 5889 5890 5891 5891 5889 5889 5891 5893 5894 5895 5897 5898 5899 5901 5903
5870 5874 5877 5880 5882 5884 5886 5888 5889 5890 5890 5890 5890 5890 5890 5889 5889 5888 5888 5888 5887 5887 5887 5887 5886 5886 5886 5887 5887 5888 5889 5890 5890 5889 5889 5892 5893 5894 5895 5897 5898 5899 5901
5866 5870 5874 5877 5880 5882 5884 5885 5887 5888 5888 5888 5888 5888 5888 5888 5887 5887 5887 5886 5886 5886 5885 5885 5885 5885 5885 5885 5886 5887 5888 5888 5888 5887 5888 5890 5892 5893 5894 5895 5896 5898 5899
5862 5867 5871 5874 5877 5879 5881 5883 5885 5886 5886 5887 5887 5887 5887 5887 5886 5886 5885 5885 5884 5884 5884 5884 5884 5884 5884 5883 5884 5885 5886 5886 5888 5889 5889 5890 5891 5891 5892 5893 5894 5896 5897
5857 5863 5867 5870 5873 5876 5878 5880 5882 5883 5884 5885 5885 5886 5886 5886 5885 5885 5885 5884 5884 5884 5884 5884 5883 5883 5883 5884 5884 5884 5885 5885 5886 5887 5888 5888 5889 5890 5891 5892 5892 5894 5895
5854 5860 5863 5866 5870 5873 5876 5878 5880 5881 5882 5883 5884 5884 5885 5885 5885 5884 5884 5884 5883 5883 5883 5883 5883 5883 5883 5883 5883 5883 5884 5885 5885 5885 5886 5887 5887 5888 5889 5890 5891 5892 5893
5850 5856 5860 5863 5867 5870 5873 5875 5877 5879 5881 5882 5883 5884 5884 5884 5884 5884 5883 5883 5883 5883 5883 5883 5883 5883 5883 5883 5883 5883 5884 5884 5884 5885 5885 5886 5887 5887 5888 5889 5889 5890 5891
5848 5852 5856 5861 5864 5868 5871 5873 5876 5878 5879 5881 5882 5883 5883 5883 5883 5883 5883 5883 5883 5882 5882 5882 5882 5882 5883 5883 5883 5883 5883 5884 5884 5884 5884 5885 5886 5886 5887 5887 5887 5888 5888
5846 5849 5854 5858 5862 5866 5869 5872 5874 5876 5878 5880 5881 5882 5882 5883 5883 5883 5883 5883 5883 5882 5882 5882 5882 5882 5882 5882 5883 5883 5883 5883 5883 5883 5884 5884 5884 5885 5885 5885 5885 5886 5886
5844 5848 5852 5856 5860 5864 5867 5870 5872 5874 5876 5878 5879 5880 5881 5882 5882 5882 5882 5883 5883 5883 5883 5883 5882 5882 5882 5882 5883 5883 5883 5883 5883 5883 5883 5883 5883 5883 5884 5884 5884 5884 5884
5843 5846 5850 5854 5858 5862 5865 5868 5870 5873 5875 5877 5878 5879 5880 5881 5881 5882 5882 5883 5883 5883 5883 5883 5883 5883 5883 5882 5883 5883 5883 5883 5882 5882 5882 5882 5882 5882 5882 5882 5882 5882 5882
5842 5845 5849 5853 5856 5860 5863 5867 5869 5872 5874 5876 5877 5878 5879 5880 5881 5881 5882 5883 5883 5883 5883 5883 5883 5883 5883 5883 5883 5883 5882 5882 5882 5882 5881 5881 5881 5880 5880 5880 5880 5880 5880
5842 5845 5849 5852 5855 5859 5862 5866 5868 5871 5873 5875 5876 5877 5878 5879 5880 5881 5882 5882 5883 5883 5883 5883 5883 5883 5882 5882 5882 5882 5882 5881 5881 5881 5880 5879 5879 5878 5878 5878 5877 5877 5877
5843 5846 5849 5852 5855 5858 5862 5865 5867 5870 5872 5873 5875 5876 5877 5878 5879 5880 5881 5882 5882 5882 5882 5882 5882 5882 5882 5882 5881 5881 5880 5880 5879 5879 5879 5878 5877 5876 5875 5875 5874 5874 5874
5843 5846 5849 5852 5855 5858 5861 5864 5866 5868 5870 5872 5873 5875 5876 5877 5878 5879 5880 5881 5881 5881 5881 5881 5881 5881 5880 5880 5880 5879 5879 5878 5877 5876 5876 5875 5874 5874 5873 5872 5871 5871 5870